Location: ???????
(55.3754°N, 39.3545°E)
Time: 19:19:58
(UTC+00:00)

Cosmos 371 Rocket - Pass Details

Date: 14 April 2026
Orbit: 674 x 689 km, 74.0° (Epoch: 19 May)

Event Time Altitude Azimuth Distance (km) Brightness Sun altitude
Rises 19:48:49 0° 333° (NNW) 3,066 8.2 -22.1°
Reaches altitude 10° 19:51:13 10° 340° (NNW) 2,148 7.0 -22.2°
Maximum altitude 19:55:53 46° 54° (NE) 922 3.9 -22.5°
Enters shadow 19:57:02 39° 92° (E) 1,038 3.9 -22.6°
